| time (UTC) | temp C | wind direction | speed KPH | gust KPH | rain 1hr cm | rain 24hr cm | rain mn cm | humidity % | barometer mb |
| 20260906080517 | 30 | 68 | 12.9 | 22.5 | 0.00 | 0.00 | 0.00 | 59 | 1020.1 |
| 20260906080037 | 30 | 68 | 16.1 | 27.4 | 0.00 | 0.00 | 0.00 | 59 | 1020.1 |
| 20260906075517 | 30 | 68 | 11.3 | 20.9 | 0.00 | 0.00 | 0.00 | 59 | 1020.1 |
| 20260906075017 | 30 | 90 | 6.4 | 20.9 | 0.00 | 0.00 | 0.00 | 59 | 1020.1 |
| 20260906074517 | 30 | 68 | 8.0 | 17.7 | 0.00 | 0.00 | 0.00 | 59 | 1020.0 |
| 20260906074017 | 30 | 68 | 8.0 | 20.9 | 0.00 | 0.00 | 0.00 | 59 | 1020.0 |
| 20260906073517 | 30 | 90 | 6.4 | 16.1 | 0.00 | 0.00 | 0.00 | 58 | 1020.0 |
| 20260906073017 | 30 | 248 | 4.8 | 9.7 | 0.00 | 0.00 | 0.00 | 59 | 1019.9 |
| 20260906072516 | 30 | 315 | 6.4 | 19.3 | 0.00 | 0.00 | 0.00 | 61 | 1019.8 |
| 20260906072017 | 30 | 68 | 6.4 | 17.7 | 0.00 | 0.00 | 0.00 | 61 | 1019.8 |
| 20260906071517 | 30 | 113 | 4.8 | 16.1 | 0.00 | 0.00 | 0.00 | 61 | 1019.8 |
| 20260906071017 | 30 | 68 | 6.4 | 14.5 | 0.00 | 0.00 | 0.00 | 61 | 1019.7 |
| 20260906070517 | 29 | 90 | 6.4 | 17.7 | 0.00 | 0.00 | 0.00 | 62 | 1019.7 |
| 20260906070016 | 29 | 90 | 6.4 | 16.1 | 0.00 | 0.00 | 0.00 | 63 | 1019.7 |
| 20260906065516 | 29 | 68 | 8.0 | 20.9 | 0.00 | 0.00 | 0.00 | 63 | 1019.7 |
| 20260906065017 | 29 | 90 | 4.8 | 14.5 | 0.00 | 0.00 | 0.00 | 61 | 1019.6 |
| 20260906064537 | 29 | 225 | 4.8 | 11.3 | 0.00 | 0.00 | 0.00 | 62 | 1019.6 |
| 20260906064016 | 29 | 90 | 3.2 | 11.3 | 0.00 | 0.00 | 0.00 | 62 | 1019.6 |
| 20260906063516 | 28 | 68 | 4.8 | 14.5 | 0.00 | 0.00 | 0.00 | 63 | 1019.6 |
| 20260906063036 | 28 | 68 | 6.4 | 14.5 | 0.00 | 0.00 | 0.00 | 65 | 1019.6 |
| 20260906062516 | 28 | 293 | 4.8 | 14.5 | 0.00 | 0.00 | 0.00 | 64 | 1019.6 |
| 20260906062036 | 28 | 338 | 6.4 | 16.1 | 0.00 | 0.00 | 0.00 | 65 | 1019.6 |
| 20260906061557 | 28 | 338 | 6.4 | 17.7 | 0.00 | 0.00 | 0.00 | 65 | 1019.7 |
| 20260906061036 | 28 | 0 | 8.0 | 17.7 | 0.00 | 0.00 | 0.00 | 65 | 1019.6 |
| 20260906060517 | 28 | 338 | 8.0 | 17.7 | 0.00 | 0.00 | 0.00 | 65 | 1019.6 |
| 20260906060016 | 28 | 0 | 8.0 | 14.5 | 0.00 | 0.00 | 0.00 | 64 | 1019.6 |
| 20260906055516 | 28 | 0 | 6.4 | 16.1 | 0.00 | 0.00 | 0.00 | 64 | 1019.6 |
| 20260906055017 | 28 | 0 | 8.0 | 17.7 | 0.00 | 0.00 | 0.00 | 64 | 1019.4 |
| 20260906054537 | 27 | 23 | 4.8 | 9.7 | 0.00 | 0.00 | 0.00 | 65 | 1019.4 |
| 20260906054017 | 27 | 0 | 8.0 | 14.5 | 0.00 | 0.00 | 0.00 | 67 | 1019.4 |
| 20260906053517 | 27 | 338 | 4.8 | 17.7 | 0.00 | 0.00 | 0.00 | 67 | 1019.5 |
| 20260906053056 | 27 | 315 | 6.4 | 14.5 | 0.00 | 0.00 | 0.00 | 68 | 1019.5 |
| 20260906052516 | 27 | 338 | 8.0 | 14.5 | 0.00 | 0.00 | 0.00 | 68 | 1019.3 |
| 20260906052016 | 27 | 90 | 4.8 | 12.9 | 0.00 | 0.00 | 0.00 | 69 | 1019.4 |
| 20260906051516 | 27 | 270 | 4.8 | 14.5 | 0.00 | 0.00 | 0.00 | 70 | 1019.4 |
| 20260906051016 | 27 | 315 | 4.8 | 12.9 | 0.00 | 0.00 | 0.00 | 69 | 1019.3 |
| 20260906050536 | 26 | 315 | 4.8 | 12.9 | 0.00 | 0.00 | 0.00 | 69 | 1019.3 |
| 20260906050039 | 26 | 338 | 6.4 | 12.9 | 0.00 | 0.00 | 0.00 | 69 | 1019.3 |
| 20260906045517 | 26 | 0 | 6.4 | 11.3 | 0.00 | 0.00 | 0.00 | 69 | 1019.3 |
| 20260906045016 | 26 | 293 | 4.8 | 12.9 | 0.00 | 0.00 | 0.00 | 68 | 1019.2 |
| 20260906044516 | 26 | 0 | 4.8 | 12.9 | 0.00 | 0.00 | 0.00 | 68 | 1019.2 |
| 20260906044016 | 26 | 0 | 3.2 | 8.0 | 0.00 | 0.00 | 0.00 | 68 | 1019.3 |
| 20260906043556 | 27 | 0 | 6.4 | 9.7 | 0.00 | 0.00 | 0.00 | 67 | 1019.3 |
| 20260906043016 | 27 | 315 | 11.3 | 17.7 | 0.00 | 0.00 | 0.00 | 67 | 1019.2 |
| 20260906042516 | 27 | 315 | 12.9 | 20.9 | 0.00 | 0.00 | 0.00 | 65 | 1019.3 |
| 20260906042016 | 27 | 293 | 12.9 | 22.5 | 0.00 | 0.00 | 0.00 | 65 | 1019.2 |
| 20260906041516 | 27 | 315 | 12.9 | 20.9 | 0.00 | 0.00 | 0.00 | 64 | 1019.2 |
| 20260906041017 | 27 | 293 | 14.5 | 22.5 | 0.00 | 0.00 | 0.00 | 64 | 1019.2 |
| 20260906040516 | 27 | 293 | 11.3 | 24.1 | 0.00 | 0.00 | 0.00 | 61 | 1019.2 |
| 20260906040016 | 27 | 315 | 4.8 | 17.7 | 0.00 | 0.00 | 0.00 | 63 | 1019.1 |
| 20260906035516 | 27 | 270 | 4.8 | 14.5 | 0.00 | 0.00 | 0.00 | 62 | 1019.1 |
| 20260906035036 | 27 | 315 | 4.8 | 16.1 | 0.00 | 0.00 | 0.00 | 62 | 1019.1 |
| 20260906034516 | 27 | 315 | 4.8 | 11.3 | 0.00 | 0.00 | 0.00 | 62 | 1019.1 |
| 20260906034016 | 27 | 338 | 4.8 | 11.3 | 0.00 | 0.00 | 0.00 | 62 | 1019.1 |
| 20260906033516 | 27 | 338 | 6.4 | 12.9 | 0.00 | 0.00 | 0.00 | 61 | 1019.1 |
| 20260906033016 | 27 | 338 | 3.2 | 12.9 | 0.00 | 0.00 | 0.00 | 61 | 1019.1 |
| 20260906032536 | 27 | 315 | 4.8 | 14.5 | 0.00 | 0.00 | 0.00 | 61 | 1019.0 |
| 20260906032038 | 27 | 293 | 4.8 | 11.3 | 0.00 | 0.00 | 0.00 | 61 | 1019.1 |
| 20260906031516 | 27 | 45 | 1.6 | 8.0 | 0.00 | 0.00 | 0.00 | 62 | 1019.0 |
| 20260906031016 | 27 | 315 | 1.6 | 6.4 | 0.00 | 0.00 | 0.00 | 64 | 1019.0 |
| 20260906030536 | 27 | 0 | 6.4 | 16.1 | 0.00 | 0.00 | 0.00 | 64 | 1019.1 |
| 20260906030016 | 27 | 338 | 3.2 | 9.7 | 0.00 | 0.00 | 0.00 | 63 | 1019.1 |
| 20260906025536 | 27 | 315 | 3.2 | 6.4 | 0.00 | 0.00 | 0.00 | 61 | 1019.1 |
| 20260906025036 | 27 | 315 | 3.2 | 8.0 | 0.00 | 0.00 | 0.00 | 62 | 1019.1 |
| 20260906024516 | 27 | 338 | 3.2 | 8.0 | 0.00 | 0.00 | 0.00 | 61 | 1019.2 |
| 20260906024016 | 27 | 338 | 4.8 | 9.7 | 0.00 | 0.00 | 0.00 | 61 | 1019.3 |
| 20260906023516 | 27 | 270 | 8.0 | 16.1 | 0.00 | 0.00 | 0.00 | 60 | 1019.4 |
| 20260906023016 | 27 | 315 | 8.0 | 19.3 | 0.00 | 0.00 | 0.00 | 61 | 1019.4 |
| 20260906022516 | 27 | 315 | 6.4 | 12.9 | 0.00 | 0.00 | 0.00 | 62 | 1019.3 |
| 20260906022016 | 27 | 315 | 8.0 | 17.7 | 0.00 | 0.00 | 0.00 | 61 | 1019.4 |
| 20260906021516 | 27 | 293 | 8.0 | 19.3 | 0.00 | 0.00 | 0.00 | 60 | 1019.4 |
| 20260906021016 | 27 | 270 | 8.0 | 20.9 | 0.00 | 0.00 | 0.00 | 59 | 1019.4 |
| 20260906020538 | 27 | 293 | 8.0 | 27.4 | 0.00 | 0.00 | 0.00 | 59 | 1019.4 |
| 20260906020016 | 27 | 315 | 6.4 | 14.5 | 0.00 | 0.00 | 0.00 | 59 | 1019.3 |
| 20260906015516 | 27 | 293 | 3.2 | 11.3 | 0.00 | 0.00 | 0.00 | 58 | 1019.3 |
| 20260906015036 | 27 | 338 | 3.2 | 12.9 | 0.00 | 0.00 | 0.00 | 57 | 1019.3 |
| 20260906014516 | 27 | 293 | 1.6 | 6.4 | 0.00 | 0.00 | 0.00 | 57 | 1019.3 |
| 20260906014036 | 27 | 0.0 | 3.2 | 0.00 | 0.00 | 0.00 | 56 | 1019.3 | |
| 20260906013516 | 28 | 270 | 1.6 | 8.0 | 0.00 | 0.00 | 0.00 | 55 | 1019.3 |
| 20260906013016 | 28 | 293 | 4.8 | 11.3 | 0.00 | 0.00 | 0.00 | 52 | 1019.2 |
| 20260906012516 | 28 | 293 | 3.2 | 12.9 | 0.00 | 0.00 | 0.00 | 51 | 1019.2 |
| 20260906012016 | 28 | 45 | 3.2 | 8.0 | 0.00 | 0.00 | 0.00 | 52 | 1019.3 |
| 20260906011516 | 28 | 180 | 1.6 | 6.4 | 0.00 | 0.00 | 0.00 | 51 | 1019.2 |
| 20260906011036 | 28 | 0 | 3.2 | 14.5 | 0.00 | 0.00 | 0.00 | 50 | 1019.3 |
| 20260906010516 | 28 | 45 | 1.6 | 8.0 | 0.00 | 0.00 | 0.00 | 50 | 1019.1 |
| 20260906010016 | 27 | 248 | 3.2 | 9.7 | 0.00 | 0.00 | 0.00 | 52 | 1019.2 |
| 20260906005515 | 27 | 338 | 4.8 | 12.9 | 0.00 | 0.00 | 0.00 | 52 | 1019.1 |
| 20260906005016 | 27 | 248 | 1.6 | 3.2 | 0.00 | 0.00 | 0.00 | 55 | 1019.1 |
| 20260906004516 | 27 | 0 | 4.8 | 14.5 | 0.00 | 0.00 | 0.00 | 56 | 1019.1 |
| 20260906004035 | 27 | 270 | 1.6 | 8.0 | 0.00 | 0.00 | 0.00 | 55 | 1019.1 |
| 20260906003516 | 27 | 0 | 3.2 | 6.4 | 0.00 | 0.00 | 0.00 | 54 | 1019.2 |
| 20260906003056 | 27 | 45 | 1.6 | 8.0 | 0.00 | 0.00 | 0.00 | 58 | 1019.2 |
| 20260906002515 | 27 | 0 | 3.2 | 6.4 | 0.00 | 0.00 | 0.00 | 57 | 1019.2 |
| 20260906002036 | 27 | 23 | 3.2 | 9.7 | 0.00 | 0.00 | 0.00 | 58 | 1019.2 |
| 20260906001516 | 27 | 338 | 6.4 | 9.7 | 0.00 | 0.00 | 0.00 | 58 | 1019.3 |
| 20260906001016 | 27 | 338 | 3.2 | 8.0 | 0.00 | 0.00 | 0.00 | 57 | 1019.3 |
| 20260906000516 | 27 | 0 | 6.4 | 14.5 | 0.00 | 0.00 | 0.00 | 57 | 1019.3 |
| 20260906000016 | 27 | 338 | 4.8 | 12.9 | 0.00 | 0.00 | 0.00 | 60 | 1019.3 |
| 20260905235515 | 27 | 315 | 6.4 | 12.9 | 0.00 | 0.00 | 0.00 | 63 | 1019.3 |
| 20260905235016 | 27 | 338 | 3.2 | 9.7 | 0.00 | 0.00 | 0.00 | 64 | 1019.4 |
| 20260905234516 | 27 | 68 | 3.2 | 8.0 | 0.00 | 0.00 | 0.00 | 67 | 1019.5 |
| 20260905234015 | 27 | 113 | 1.6 | 8.0 | 0.00 | 0.00 | 0.00 | 67 | 1019.5 |
| 20260905233515 | 27 | 338 | 3.2 | 9.7 | 0.00 | 0.00 | 0.00 | 66 | 1019.6 |
| 20260905233036 | 27 | 315 | 3.2 | 11.3 | 0.00 | 0.00 | 0.00 | 65 | 1019.6 |
| 20260905232516 | 27 | 338 | 4.8 | 8.0 | 0.00 | 0.00 | 0.00 | 65 | 1019.8 |
| 20260905232016 | 27 | 315 | 4.8 | 12.9 | 0.00 | 0.00 | 0.00 | 63 | 1019.7 |
| 20260905231535 | 27 | 293 | 3.2 | 11.3 | 0.00 | 0.00 | 0.00 | 65 | 1019.7 |
| 20260905231015 | 27 | 338 | 3.2 | 4.8 | 0.00 | 0.00 | 0.00 | 67 | 1019.8 |
| 20260905230516 | 27 | 338 | 3.2 | 6.4 | 0.00 | 0.00 | 0.00 | 68 | 1019.9 |
| 20260905230015 | 27 | 0 | 3.2 | 8.0 | 0.00 | 0.00 | 0.00 | 68 | 1019.9 |
| 20260905225516 | 27 | 0 | 3.2 | 4.8 | 0.00 | 0.00 | 0.00 | 68 | 1019.8 |
| 20260905225016 | 27 | 0 | 4.8 | 8.0 | 0.00 | 0.00 | 0.00 | 68 | 1019.8 |
| 20260905224515 | 27 | 0 | 3.2 | 11.3 | 0.00 | 0.00 | 0.00 | 70 | 1019.8 |
| 20260905224015 | 27 | 338 | 3.2 | 9.7 | 0.00 | 0.00 | 0.00 | 72 | 1019.8 |
| 20260905223537 | 27 | 0 | 4.8 | 12.9 | 0.00 | 0.00 | 0.00 | 72 | 1019.8 |
| 20260905223015 | 26 | 0 | 8.0 | 14.5 | 0.00 | 0.00 | 0.00 | 76 | 1019.8 |
| 20260905222517 | 26 | 315 | 6.4 | 14.5 | 0.00 | 0.00 | 0.00 | 76 | 1019.8 |
| 20260905222018 | 26 | 338 | 6.4 | 12.9 | 0.00 | 0.00 | 0.00 | 76 | 1019.8 |
| 20260905221517 | 27 | 293 | 4.8 | 12.9 | 0.00 | 0.00 | 0.00 | 76 | 1019.9 |
| 20260905221017 | 27 | 293 | 4.8 | 12.9 | 0.00 | 0.00 | 0.00 | 76 | 1019.8 |
| 20260905220515 | 27 | 248 | 3.2 | 6.4 | 0.00 | 0.00 | 0.00 | 76 | 1019.8 |
| 20260905220019 | 27 | 270 | 3.2 | 9.7 | 0.00 | 0.00 | 0.00 | 75 | 1019.9 |
| 20260905215517 | 27 | 135 | 3.2 | 11.3 | 0.00 | 0.00 | 0.00 | 76 | 1019.8 |
| 20260905215037 | 27 | 203 | 3.2 | 6.4 | 0.00 | 0.00 | 0.00 | 76 | 1020.0 |
| 20260905214517 | 27 | 180 | 1.6 | 4.8 | 0.00 | 0.00 | 0.00 | 75 | 1019.9 |
| 20260905214017 | 27 | 158 | 3.2 | 6.4 | 0.00 | 0.00 | 0.00 | 75 | 1020.0 |
| 20260905213517 | 27 | 113 | 3.2 | 8.0 | 0.00 | 0.00 | 0.00 | 75 | 1020.0 |
| 20260905213017 | 27 | 180 | 3.2 | 8.0 | 0.00 | 0.00 | 0.00 | 75 | 1020.0 |
| 20260905212517 | 27 | 113 | 3.2 | 9.7 | 0.00 | 0.00 | 0.00 | 75 | 1019.9 |
| 20260905212017 | 27 | 180 | 4.8 | 11.3 | 0.00 | 0.00 | 0.00 | 75 | 1020.0 |
| 20260905211537 | 27 | 180 | 3.2 | 8.0 | 0.00 | 0.00 | 0.00 | 75 | 1020.1 |
| 20260905211037 | 27 | 203 | 1.6 | 8.0 | 0.00 | 0.00 | 0.00 | 75 | 1019.8 |
| 20260905210517 | 27 | 180 | 3.2 | 9.7 | 0.00 | 0.00 | 0.00 | 75 | 1020.0 |
| 20260905210017 | 27 | 158 | 3.2 | 6.4 | 0.00 | 0.00 | 0.00 | 75 | 1019.9 |
| 20260905205517 | 27 | 90 | 4.8 | 12.9 | 0.00 | 0.00 | 0.00 | 75 | 1019.9 |
| 20260905205017 | 27 | 135 | 3.2 | 6.4 | 0.00 | 0.00 | 0.00 | 74 | 1019.8 |
| 20260905204517 | 27 | 113 | 4.8 | 14.5 | 0.00 | 0.00 | 0.00 | 74 | 1019.8 |
| 20260905204017 | 27 | 203 | 3.2 | 14.5 | 0.00 | 0.00 | 0.00 | 74 | 1019.9 |
| 20260905203537 | 27 | 135 | 3.2 | 6.4 | 0.00 | 0.00 | 0.00 | 74 | 1019.9 |
| 20260905203038 | 27 | 90 | 4.8 | 14.5 | 0.00 | 0.00 | 0.00 | 74 | 1019.9 |
| 20260905202517 | 27 | 315 | 4.8 | 19.3 | 0.00 | 0.00 | 0.00 | 74 | 1020.0 |
| 20260905202017 | 27 | 180 | 4.8 | 11.3 | 0.00 | 0.00 | 0.00 | 74 | 1020.0 |
| 20260905201517 | 27 | 113 | 3.2 | 11.3 | 0.00 | 0.00 | 0.00 | 74 | 1020.0 |
| 20260905201017 | 27 | 90 | 6.4 | 16.1 | 0.00 | 0.00 | 0.00 | 74 | 1020.0 |
| 20260905200517 | 27 | 203 | 3.2 | 11.3 | 0.00 | 0.00 | 0.00 | 74 | 1020.1 |
| 20260905200017 | 27 | 90 | 4.8 | 9.7 | 0.00 | 0.00 | 0.00 | 74 | 1020.0 |
| 20260905195517 | 27 | 90 | 4.8 | 14.5 | 0.00 | 0.00 | 0.00 | 74 | 1020.0 |
| 20260905195017 | 27 | 68 | 3.2 | 12.9 | 0.00 | 0.00 | 0.00 | 74 | 1020.0 |
| 20260905194517 | 27 | 68 | 3.2 | 11.3 | 0.00 | 0.00 | 0.00 | 74 | 1020.0 |
| 20260905194036 | 27 | 90 | 3.2 | 11.3 | 0.00 | 0.00 | 0.00 | 73 | 1020.0 |
| 20260905193516 | 27 | 248 | 3.2 | 9.7 | 0.00 | 0.00 | 0.00 | 73 | 1019.9 |
| 20260905193016 | 27 | 180 | 3.2 | 6.4 | 0.00 | 0.00 | 0.00 | 73 | 1019.9 |
| 20260905192517 | 27 | 293 | 4.8 | 12.9 | 0.00 | 0.00 | 0.00 | 73 | 1019.9 |
| 20260905192017 | 27 | 315 | 4.8 | 14.5 | 0.00 | 0.00 | 0.00 | 73 | 1019.8 |
| 20260905191516 | 27 | 315 | 6.4 | 16.1 | 0.00 | 0.00 | 0.00 | 73 | 1019.8 |
| 20260905191037 | 27 | 293 | 4.8 | 14.5 | 0.00 | 0.00 | 0.00 | 72 | 1019.8 |
| 20260905190516 | 27 | 0 | 6.4 | 16.1 | 0.00 | 0.00 | 0.00 | 72 | 1019.6 |
| 20260905190017 | 27 | 270 | 4.8 | 16.1 | 0.00 | 0.00 | 0.00 | 72 | 1019.7 |
| 20260905185517 | 27 | 293 | 3.2 | 6.4 | 0.00 | 0.00 | 0.00 | 71 | 1019.6 |
| 20260905185036 | 27 | 293 | 4.8 | 9.7 | 0.00 | 0.00 | 0.00 | 71 | 1019.6 |
| 20260905184537 | 27 | 315 | 4.8 | 16.1 | 0.00 | 0.00 | 0.00 | 71 | 1019.6 |
| 20260905184016 | 27 | 293 | 6.4 | 16.1 | 0.00 | 0.00 | 0.00 | 70 | 1019.6 |
| 20260905183517 | 27 | 0 | 3.2 | 12.9 | 0.00 | 0.00 | 0.00 | 70 | 1019.6 |
| 20260905183037 | 27 | 338 | 4.8 | 12.9 | 0.00 | 0.00 | 0.00 | 69 | 1019.4 |
| 20260905182517 | 27 | 225 | 4.8 | 11.3 | 0.00 | 0.00 | 0.00 | 68 | 1019.3 |
| 20260905182016 | 27 | 315 | 4.8 | 12.9 | 0.00 | 0.00 | 0.00 | 67 | 1019.3 |
| 20260905181517 | 28 | 68 | 4.8 | 14.5 | 0.00 | 0.00 | 0.00 | 67 | 1019.2 |
| 20260905181017 | 28 | 23 | 1.6 | 8.0 | 0.00 | 0.00 | 0.00 | 67 | 1019.2 |
| 20260905180516 | 28 | 225 | 3.2 | 14.5 | 0.00 | 0.00 | 0.00 | 67 | 1019.2 |
| 20260905180036 | 28 | 248 | 3.2 | 6.4 | 0.00 | 0.00 | 0.00 | 66 | 1019.2 |
| 20260905175516 | 28 | 315 | 4.8 | 9.7 | 0.00 | 0.00 | 0.00 | 65 | 1019.1 |
| 20260905175016 | 28 | 270 | 3.2 | 4.8 | 0.00 | 0.00 | 0.00 | 65 | 1019.1 |
| 20260905174516 | 28 | 293 | 4.8 | 9.7 | 0.00 | 0.00 | 0.00 | 63 | 1019.1 |
| 20260905174016 | 28 | 0 | 6.4 | 16.1 | 0.00 | 0.00 | 0.00 | 63 | 1019.1 |
| 20260905173536 | 28 | 315 | 4.8 | 14.5 | 0.00 | 0.00 | 0.00 | 62 | 1019.2 |
| 20260905173016 | 28 | 0 | 3.2 | 8.0 | 0.00 | 0.00 | 0.00 | 61 | 1019.1 |
| 20260905172516 | 28 | 338 | 3.2 | 12.9 | 0.00 | 0.00 | 0.00 | 62 | 1019.1 |
| 20260905172016 | 28 | 293 | 3.2 | 6.4 | 0.00 | 0.00 | 0.00 | 62 | 1019.1 |
| 20260905171536 | 28 | 270 | 3.2 | 6.4 | 0.00 | 0.00 | 0.00 | 62 | 1019.0 |
| 20260905171016 | 28 | 45 | 4.8 | 11.3 | 0.00 | 0.00 | 0.00 | 62 | 1018.9 |
| 20260905170516 | 29 | 225 | 3.2 | 14.5 | 0.00 | 0.00 | 0.00 | 61 | 1018.9 |
| 20260905170017 | 29 | 270 | 3.2 | 6.4 | 0.00 | 0.00 | 0.00 | 61 | 1018.9 |
| 20260905165516 | 29 | 23 | 4.8 | 14.5 | 0.00 | 0.00 | 0.00 | 58 | 1018.9 |
| 20260905165016 | 29 | 0 | 6.4 | 14.5 | 0.00 | 0.00 | 0.00 | 59 | 1018.8 |
| 20260905164516 | 29 | 23 | 8.0 | 16.1 | 0.00 | 0.00 | 0.00 | 56 | 1018.8 |
| 20260905164016 | 30 | 315 | 9.7 | 17.7 | 0.00 | 0.00 | 0.00 | 56 | 1018.9 |
| 20260905163516 | 30 | 23 | 6.4 | 22.5 | 0.00 | 0.00 | 0.00 | 54 | 1018.9 |
| 20260905163016 | 30 | 338 | 4.8 | 9.7 | 0.00 | 0.00 | 0.00 | 54 | 1018.9 |
| 20260905162516 | 30 | 338 | 6.4 | 14.5 | 0.00 | 0.00 | 0.00 | 53 | 1019.0 |
| 20260905162056 | 30 | 315 | 6.4 | 14.5 | 0.00 | 0.00 | 0.00 | 50 | 1019.0 |
| 20260905161516 | 31 | 315 | 9.7 | 17.7 | 0.00 | 0.00 | 0.00 | 50 | 1019.0 |
| 20260905161016 | 31 | 315 | 12.9 | 20.9 | 0.00 | 0.00 | 0.00 | 48 | 1019.0 |
| 20260905160516 | 31 | 315 | 9.7 | 20.9 | 0.00 | 0.00 | 0.00 | 46 | 1019.0 |
| 20260905160016 | 31 | 270 | 4.8 | 11.3 | 0.00 | 0.00 | 0.00 | 47 | 1018.9 |
| 20260905155516 | 31 | 293 | 11.3 | 22.5 | 0.00 | 0.00 | 0.00 | 46 | 1018.9 |
| 20260905155016 | 31 | 315 | 8.0 | 17.7 | 0.00 | 0.00 | 0.00 | 46 | 1018.9 |
| 20260905154516 | 31 | 315 | 8.0 | 22.5 | 0.00 | 0.00 | 0.00 | 45 | 1018.9 |
| 20260905154016 | 32 | 315 | 9.7 | 17.7 | 0.00 | 0.00 | 0.00 | 45 | 1018.9 |
| 20260905153516 | 32 | 270 | 9.7 | 16.1 | 0.00 | 0.00 | 0.00 | 44 | 1018.9 |
| 20260905153016 | 32 | 315 | 6.4 | 12.9 | 0.00 | 0.00 | 0.00 | 44 | 1018.9 |
| 20260905152536 | 32 | 270 | 11.3 | 19.3 | 0.00 | 0.00 | 0.00 | 45 | 1018.9 |
| 20260905152016 | 32 | 270 | 8.0 | 19.3 | 0.00 | 0.00 | 0.00 | 46 | 1018.9 |
| 20260905151516 | 32 | 315 | 8.0 | 14.5 | 0.00 | 0.00 | 0.00 | 47 | 1018.9 |
| 20260905151016 | 32 | 270 | 9.7 | 20.9 | 0.00 | 0.00 | 0.00 | 47 | 1018.7 |
| 20260905150518 | 32 | 0 | 6.4 | 16.1 | 0.00 | 0.00 | 0.00 | 45 | 1018.8 |
| 20260905150016 | 33 | 23 | 4.8 | 12.9 | 0.00 | 0.00 | 0.00 | 45 | 1018.8 |
| 20260905145516 | 33 | 248 | 6.4 | 14.5 | 0.00 | 0.00 | 0.00 | 45 | 1018.8 |
| 20260905145016 | 33 | 270 | 8.0 | 20.9 | 0.00 | 0.00 | 0.00 | 43 | 1018.8 |
| 20260905144516 | 33 | 23 | 8.0 | 20.9 | 0.00 | 0.00 | 0.00 | 42 | 1018.8 |
| 20260905144036 | 33 | 135 | 4.8 | 11.3 | 0.00 | 0.00 | 0.00 | 40 | 1018.8 |
| 20260905143516 | 33 | 270 | 6.4 | 16.1 | 0.00 | 0.00 | 0.00 | 40 | 1018.8 |
| 20260905143016 | 33 | 270 | 4.8 | 14.5 | 0.00 | 0.00 | 0.00 | 39 | 1018.8 |
| 20260905142516 | 33 | 315 | 4.8 | 14.5 | 0.00 | 0.00 | 0.00 | 40 | 1018.9 |
| 20260905142016 | 33 | 293 | 3.2 | 14.5 | 0.00 | 0.00 | 0.00 | 37 | 1018.9 |
| 20260905141516 | 33 | 0 | 8.0 | 16.1 | 0.00 | 0.00 | 0.00 | 38 | 1018.9 |
| 20260905141016 | 33 | 203 | 4.8 | 17.7 | 0.00 | 0.00 | 0.00 | 37 | 1019.0 |
| 20260905140516 | 33 | 315 | 6.4 | 19.3 | 0.00 | 0.00 | 0.00 | 39 | 1018.9 |
| 20260905140016 | 33 | 315 | 8.0 | 20.9 | 0.00 | 0.00 | 0.00 | 42 | 1018.9 |
| 20260905135516 | 33 | 23 | 4.8 | 12.9 | 0.00 | 0.00 | 0.00 | 41 | 1019.0 |
| 20260905135016 | 33 | 68 | 4.8 | 11.3 | 0.00 | 0.00 | 0.00 | 45 | 1019.0 |
| 20260905134516 | 33 | 158 | 6.4 | 22.5 | 0.00 | 0.00 | 0.00 | 46 | 1019.0 |
| 20260905134016 | 33 | 90 | 4.8 | 14.5 | 0.00 | 0.00 | 0.00 | 47 | 1019.1 |
| 20260905133516 | 33 | 293 | 6.4 | 16.1 | 0.00 | 0.00 | 0.00 | 35 | 1019.0 |
| 20260905133015 | 33 | 293 | 8.0 | 20.9 | 0.00 | 0.00 | 0.00 | 38 | 1019.0 |
| 20260905132516 | 33 | 293 | 8.0 | 19.3 | 0.00 | 0.00 | 0.00 | 35 | 1019.2 |
| 20260905132016 | 33 | 270 | 6.4 | 17.7 | 0.00 | 0.00 | 0.00 | 35 | 1019.2 |
| 20260905131515 | 33 | 270 | 9.7 | 22.5 | 0.00 | 0.00 | 0.00 | 34 | 1019.2 |
| 20260905131015 | 33 | 270 | 12.9 | 22.5 | 0.00 | 0.00 | 0.00 | 34 | 1019.2 |
| 20260905130516 | 33 | 270 | 12.9 | 25.7 | 0.00 | 0.00 | 0.00 | 33 | 1019.4 |
| 20260905130016 | 33 | 293 | 8.0 | 22.5 | 0.00 | 0.00 | 0.00 | 33 | 1019.3 |
| 20260905125515 | 33 | 315 | 11.3 | 20.9 | 0.00 | 0.00 | 0.00 | 32 | 1019.4 |
| 20260905125035 | 33 | 315 | 14.5 | 25.7 | 0.00 | 0.00 | 0.00 | 32 | 1019.3 |
| 20260905124515 | 33 | 270 | 9.7 | 20.9 | 0.00 | 0.00 | 0.00 | 34 | 1019.4 |
| 20260905124015 | 33 | 0 | 9.7 | 24.1 | 0.00 | 0.00 | 0.00 | 33 | 1019.4 |
| 20260905123556 | 34 | 293 | 9.7 | 25.7 | 0.00 | 0.00 | 0.00 | 33 | 1019.5 |
| 20260905123015 | 33 | 338 | 4.8 | 17.7 | 0.00 | 0.00 | 0.00 | 34 | 1019.3 |
| 20260905122515 | 33 | 293 | 9.7 | 20.9 | 0.00 | 0.00 | 0.00 | 33 | 1019.5 |
| 20260905122015 | 33 | 270 | 9.7 | 20.9 | 0.00 | 0.00 | 0.00 | 35 | 1019.6 |
| 20260905121516 | 33 | 293 | 8.0 | 16.1 | 0.00 | 0.00 | 0.00 | 36 | 1019.5 |
| 20260905121015 | 33 | 293 | 8.0 | 22.5 | 0.00 | 0.00 | 0.00 | 36 | 1019.5 |
| 20260905120516 | 33 | 293 | 8.0 | 19.3 | 0.00 | 0.00 | 0.00 | 35 | 1019.7 |
| 20260905120015 | 33 | 270 | 14.5 | 22.5 | 0.00 | 0.00 | 0.00 | 34 | 1019.6 |
| 20260905115517 | 33 | 270 | 12.9 | 25.7 | 0.00 | 0.00 | 0.00 | 35 | 1019.7 |
| 20260905115015 | 33 | 270 | 8.0 | 20.9 | 0.00 | 0.00 | 0.00 | 35 | 1019.6 |
| 20260905114515 | 33 | 270 | 12.9 | 24.1 | 0.00 | 0.00 | 0.00 | 36 | 1019.6 |
| 20260905114015 | 33 | 270 | 8.0 | 29.0 | 0.00 | 0.00 | 0.00 | 35 | 1019.6 |
| 20260905113515 | 33 | 270 | 11.3 | 24.1 | 0.00 | 0.00 | 0.00 | 36 | 1019.6 |
| 20260905113015 | 33 | 0 | 11.3 | 22.5 | 0.00 | 0.00 | 0.00 | 38 | 1019.8 |
| 20260905112557 | 32 | 338 | 11.3 | 22.5 | 0.00 | 0.00 | 0.00 | 40 | 1019.7 |
| 20260905112017 | 33 | 315 | 12.9 | 24.1 | 0.00 | 0.00 | 0.00 | 37 | 1019.7 |
| 20260905111517 | 33 | 338 | 8.0 | 25.7 | 0.00 | 0.00 | 0.00 | 39 | 1019.7 |
| 20260905111018 | 33 | 270 | 9.7 | 20.9 | 0.00 | 0.00 | 0.00 | 38 | 1019.7 |
| 20260905110557 | 33 | 293 | 8.0 | 20.9 | 0.00 | 0.00 | 0.00 | 36 | 1019.7 |
| 20260905110017 | 33 | 338 | 9.7 | 20.9 | 0.00 | 0.00 | 0.00 | 37 | 1019.6 |
| 20260905105537 | 33 | 338 | 11.3 | 22.5 | 0.00 | 0.00 | 0.00 | 36 | 1019.7 |
| 20260905105038 | 32 | 315 | 6.4 | 20.9 | 0.00 | 0.00 | 0.00 | 38 | 1019.6 |
| 20260905104517 | 32 | 23 | 6.4 | 14.5 | 0.00 | 0.00 | 0.00 | 41 | 1019.6 |
| 20260905104017 | 32 | 338 | 11.3 | 32.2 | 0.00 | 0.00 | 0.00 | 56 | 1019.6 |
| 20260905103517 | 31 | 338 | 8.0 | 20.9 | 0.00 | 0.00 | 0.00 | 56 | 1019.6 |
| 20260905103017 | 31 | 293 | 9.7 | 20.9 | 0.00 | 0.00 | 0.00 | 56 | 1019.7 |
| 20260905102517 | 31 | 270 | 6.4 | 19.3 | 0.00 | 0.00 | 0.00 | 56 | 1019.6 |
| 20260905102017 | 31 | 225 | 9.7 | 22.5 | 0.00 | 0.00 | 0.00 | 56 | 1019.6 |
| 20260905101517 | 31 | 225 | 8.0 | 20.9 | 0.00 | 0.00 | 0.00 | 57 | 1019.6 |
| 20260905101017 | 31 | 180 | 6.4 | 19.3 | 0.00 | 0.00 | 0.00 | 56 | 1019.7 |
| 20260905100519 | 31 | 68 | 9.7 | 27.4 | 0.00 | 0.00 | 0.00 | 56 | 1019.7 |
| 20260905100017 | 31 | 68 | 14.5 | 27.4 | 0.00 | 0.00 | 0.00 | 56 | 1019.3 |
| 20260905095517 | 31 | 68 | 14.5 | 30.6 | 0.00 | 0.00 | 0.00 | 56 | 1019.7 |
| 20260905095037 | 31 | 68 | 14.5 | 25.7 | 0.00 | 0.00 | 0.00 | 56 | 1019.6 |
| 20260905094517 | 31 | 90 | 9.7 | 24.1 | 0.00 | 0.00 | 0.00 | 55 | 1019.5 |
| 20260905094017 | 31 | 90 | 9.7 | 17.7 | 0.00 | 0.00 | 0.00 | 55 | 1019.6 |
| 20260905093517 | 31 | 90 | 9.7 | 22.5 | 0.00 | 0.00 | 0.00 | 56 | 1019.6 |
| 20260905093017 | 31 | 68 | 11.3 | 25.7 | 0.00 | 0.00 | 0.00 | 57 | 1019.5 |
| 20260905092517 | 30 | 68 | 16.1 | 35.4 | 0.00 | 0.00 | 0.00 | 58 | 1019.5 |
| 20260905092017 | 30 | 90 | 14.5 | 29.0 | 0.00 | 0.00 | 0.00 | 59 | 1019.5 |
| 20260905091537 | 30 | 68 | 16.1 | 32.2 | 0.00 | 0.00 | 0.00 | 58 | 1019.6 |
| 20260905091017 | 30 | 45 | 14.5 | 32.2 | 0.00 | 0.00 | 0.00 | 59 | 1019.7 |
| 20260905090517 | 30 | 68 | 14.5 | 32.2 | 0.00 | 0.00 | 0.00 | 59 | 1019.9 |
| 20260905090037 | 30 | 68 | 14.5 | 29.0 | 0.00 | 0.00 | 0.00 | 59 | 1019.8 |
| 20260905085537 | 30 | 68 | 12.9 | 24.1 | 0.00 | 0.00 | 0.00 | 59 | 1019.8 |
| 20260905085017 | 30 | 68 | 12.9 | 25.7 | 0.00 | 0.00 | 0.00 | 60 | 1019.9 |
| 20260905084557 | 30 | 68 | 14.5 | 22.5 | 0.00 | 0.00 | 0.00 | 62 | 1019.8 |
| 20260905084017 | 30 | 68 | 11.3 | 30.6 | 0.00 | 0.00 | 0.00 | 61 | 1019.8 |
| 20260905083517 | 30 | 68 | 11.3 | 25.7 | 0.00 | 0.00 | 0.00 | 63 | 1019.8 |
| 20260905083017 | 29 | 68 | 14.5 | 24.1 | 0.00 | 0.00 | 0.00 | 64 | 1019.7 |
| 20260905082517 | 29 | 68 | 16.1 | 24.1 | 0.00 | 0.00 | 0.00 | 64 | 1019.8 |
| 20260905082017 | 29 | 68 | 11.3 | 24.1 | 0.00 | 0.00 | 0.00 | 62 | 1019.8 |
| 20260905081517 | 30 | 68 | 11.3 | 17.7 | 0.00 | 0.00 | 0.00 | 62 | 1019.8 |
| 20260905081017 | 30 | 68 | 12.9 | 22.5 | 0.00 | 0.00 | 0.00 | 62 | 1019.8 |